Tracking 23762 objects as of 19-Oct-2021
HD Live streaming from Space Station
objects crossing your sky now

NUSAT-10 CAROLINE

Track NUSAT-10 CAROLINE now!
10-day predictions


NORAD ID: 46832
Int'l Code: 2020-079F
Perigee: 466.3 km
Apogee: 481.0 km
Inclination: 97.2 °
Period: 93.9 minutes
Semi major axis: 6844 km
RCS: Unknown
Launch date: November 6, 2020
Source: Argentina (ARGN)
Launch site: Taiyaun Space Center, China (TSC)
aabbcc
Your satellite tracking list
Your tracking list is empty




NASA's NSSDC Master Catalog

Two Line Element Set (TLE):
1 46832U 20079F   21292.81837943  .00004224  00000-0  13421-3 0  9996
2 46832  97.2330   3.6596 0010709  95.1906  37.3379 15.33121926 53222
Source of the keplerian elements: AFSPC